Location: *
(46.4000°N, 12.6667°E)
Time: 09:23:57
(UTC+00:00)

STARLINK-1219 - Pass Details

Date: 09 April 2020
Orbit: 549 x 550 km, 53.0° (Epoch: 25 May)

Event Time Altitude Azimuth Distance (km) Brightness Sun altitude
Rises 18:19:10 0° 300° (WNW) 2,718 9.3 -5.8°
Reaches altitude 10° 18:21:24 10° 302° (WNW) 1,823 7.9 -6.1°
Maximum altitude 18:25:33 76° 28° (NNE) 570 3.7 -6.8°
Drops below altitude 10° 18:29:40 10° 114° (ESE) 1,815 5.6 -7.5°
Enters shadow 18:29:46 - 115° (ESE) 1,855 5.6 -7.5°
